User: anonymous   Login
Location: Unspecified
(0.0000°N, 0.0000°E)
Time: 03:54:13
(UTC+01:00)
Language:

Cosmos 540 Rocket - Orbit

View from above orbital plane
View from above orbital plane
View from above satellite
View from above satellite

Ground track
Ground track

The orbit data is extracted from the following two-line orbital elements,

1 06324U 72104B   14297.44219231  .00000515  00000-0  16148-3 0  3918
2 06324 074.0768 097.1771 0008240 128.5257 295.5666 14.42999371196111
Epoch (UTC): 24 October 2014 10:36:45
Eccentricity: 0.0008240
inclination: 74.0768°
perigee height: 743 km
apogee height: 754 km
right ascension of ascending node: 97.1771°
argument of perigee: 128.5257°
revolutions per day: 14.42999371
mean anomaly at epoch: 295.5666°
orbit number at epoch: 19611

The dashed part of the orbit path shows where the satellite is in the earth's shadow,  

DLR